Погода в Ланкаране

Погода в Ланкаране : погода сейчас, прогноз погоды и архив. Всё, что Вы хотите узнать о погоде в Ланкаране!

Поиск расширенной информации на нашем сайте:

Полезная информация: Brady хочет познакомиться - brady tls2200.

Другие новости

Новости СМИ2

Главная страница сайта

Новости сайта

03.07.2017

Напоминаем, что на нашем специализированном сайте Метеоцентр.Азия вы можете получить высокодетализированные автоматические прогнозы погоды по пунктам России, СНГ и мира в авиационном формате (включающие направление и скорость ветра, видимость, явления погоды, количество и форму облачности, нижнюю и верхнюю границу облачности).

Рекомендуем: готовые проекты бань, проекты деревянных бань

Погода в Ланкаране - сегодня

Время (UTC), дата Ветер
(°,м/с) 
Видим.   Явления Облачность Т
(°С)
Тd
(°С)
f(%) Тe
(°С)
Pmin
(гПа)
dP
(гПа)
Po
(мм)
O2
(г/м3)
Тmin Tmax R s Состояние
почвы
09 19.05.18 140 (ЮВ) 20000 м    ясно 
+25.2 +17.9 64 +39  1017.3  -0.5  764  278           
12 19.05.18 180 (Ю) 20000 м    ясно 
+25.4 +15.5 54 +34  1016.1  -1.2  763  278           
15 19.05.18 160 (Ю) 20000 м    6/0 средняя 
[Ac lent]
+22.2 +17.9 77 +36  1015.6  -0.5  763  280           
21 19.05.18 140 (ЮВ) 4000 м    ясно 
+18.8 +14.9 78 +28  1015.3  -0.6  763  284           
00 20.05.18 200 (Ю) 4000 м    ясно 
+15.2 +10.9 75 +19  1015.5  0.2  763  289           
03 20.05.18 тихо ()   20000 м    6/0 средняя 
[Ac lent]
+15.6 +10.3 71 +17  1016.3  0.8  763  289           
09 20.05.18 160 (Ю) 20000 м    6/6 600 м средняя 
[Sc|Ac lent]
+26.8 +15.5 50 +36  1014.7  -0.8  762  276           
12 20.05.18 070 (В) 20000 м    4/0 средняя 
[Ac lent]
+25.6 +18.4 64 +40  1013.9  -0.8  762  276           
15 20.05.18 160 (Ю) 20000 м    6/6 600 м средняя 
[Sc|Ac lent]
+23.2 +19.3 79 +40  1013.2  -0.7  761  278           
21 20.05.18 200 (Ю) 4000 м    8/8 600 м средняя 
[Sc|Ac lent]
+19 +13.2 69 +26  1014.1  -0.5  762  284           
00 21.05.18 200 (Ю) 4000 м    4/0 средняя 
[Ac lent]
+17.7 +14 79 +26  1013.8  -0.3  761  285           
03 21.05.18 270 (З) 20000 м    6/6 600 м средняя 
[Sc|Ac lent]
+18.1 +15 82 +27  1014.9  1.1  762  285           
06 21.05.18 340 (С) 20000 м    6/0 средняя 
[Ac und]
+25.6 +16.7 58 +37  1015.1  0.2  762  277  +11.9         
09 21.05.18 090 (В) 20000 м    8/0 средняя 
[Ac lent]
+27.8 +17.7 54 +41  1014.4  -0.7  762  275           
12 21.05.18 160 (Ю) 10 км    8/8 600 м средняя 
[Sc diur, vesp|Ac und]
+25.7 +15.3 53 +34  1014  -0.4  762  277           
15 21.05.18 110 (В) 10 км    8/8 600 м средняя 
[Sc diur, vesp|Ac und]
+23.4 +14.5 57 +31  1012.8  -1.2  761  279           
21 21.05.18 360 (С) 4000 м    8/8 600 м средняя 
[Sc diur, vesp|Ac und]
+19.7 +16.4 81 +32  1014.7  0.1  762  283           
00 22.05.18 290 (З) 4000 м    6/6 600 м средняя 
[Sc diur, vesp|Ac und]
+18.5 +15.4 82 +28  1015.3  0.6  763  285           
03 22.05.18 250 (З) 20000 м    6/0 средняя 
[Ac lent]
+20.2 +15.5 74 +29  1017.2  1.9  764  283           
06 22.05.18 360 (С) 20000 м    4/0 средняя 
[Ac lent]
+28 +13.1 40 +33  1018.2  765  277  +17         
09 22.05.18 070 (В) 4000 м    6/0 средняя 
[Ac lent]
+27 +14.8 47 +35  1018.6  0.4  765  278           
12 22.05.18 090 (В) 20000 м    8/8 600 м средняя 
[Sc|Ac lent]
+25 +16.9 61 +37  1017.9  -0.7  765  279           
15 22.05.18 140 (ЮВ) 20000 м    9/9 600 м средняя 
[Sc|Ac lent]
+23.9 +17.5 67 +37  1018.3  0.4  765  280           
18 22.05.18 тихо ()   4000 м    ясно 
+18.7 +16.4 86 +29  1018.3  765  285    +28.6       
21 22.05.18 230 (ЮЗ) 4000 м    4/0 средняя 
[Ac lent]
+15.6 +13.8 89 +23  1018.2  -0.1  765  289           
Время (UTC), дата Ветер
(°,м/с) 
Видим.   Явления Облачность Т
(°С)
Тd
(°С)
f(%) Тe
(°С)
Pmin
(гПа)
dP
(гПа)
Po
(мм)
O2
(г/м3)
Тmin Tmax R s Состояние
почвы

Для получения пояснительной информации подведите курсор к названию столбца.

ПОГОДА в Ланкаране - архив

Всё, что Вы хотите узнать о погоде в Ланкаране - удобно и подробно!

Выберите нужную дату (начиная с 1 января 2015* года) и нажмите кнопку "Найти".
Будут отображены архивные сводки погоды по пункту Ланкаран, начиная с указанной даты.


Отображать данные в формате CSV (для использования в таблицах Excel)


Внимание! Наш архив погоды предназначен исключительно для личного некоммерческого использования в познавательных целях. Если Вам необходимы официальные справки о состоянии погоды (для производственных, юридических, коммерческих и т.п. целей), обращайтесь в органы Росгидромета.

*Примечание: данная дата относится к архиву по метеостанциям СССР (Россия, СНГ, Балтия).
Архив по метеостанциям Зарубежной Европы и Азии (кроме Китая) хранится 10 дней, по другим регионам земного шара (Китай, Африка, Америка, Австралия, Океания) - 1 день.

Ланкаран - район местоположения метеостанции


Название, широта, долгота, высота метеостанции:
Ланкаран (аэропорт) 38.7°ш. 48.8°д. -12 м над ур. моря [Азербайджан]

Дополнительная информация

В oтличие oт бoльшинства пoгoдных сайтoв мы публикуем пoдрoбную метеoинфoрмацию в детальнoм прoфессиoнальнoм фoрмате.

Характеристики температуры и влажнoсти вoздуха измеряются на высoте 2 м в тени вдали oт зданий и деревьев.
Скoрoсть ветра измеряется на высoте 10 м (на урoвне рoста челoвека скoрoсть ветра ниже в 1.5-2 раза). Если метеoстанция нахoдится в гoрoде или в лесу, тo скoрoсть ветра занижена на 2-4 м/с пo сравнению с oткрытым местoм. Скoрoсть ветра над акватoриями крупных рек и oзёр, а также на вершинах хoлмoв на 2-5 м/с выше, чем в oбычных услoвиях.
Атмoсфернoе давление в разных тoчках местнoсти мoжет значительнo oтличаться oт давления на метеoстанции, в зависимoсти oт услoвий рельефа (при пoдъёме на 10 м давление пoнижается примернo на 1 мм рт.ст.).